Location: Boiro
(42.6475°N, 8.8834°W)
Time: 20:40:52
(UTC+02:00)

AO-73 - Pass Details

Date: 01 May 2024
Orbit: 560 x 625 km, 97.7° (Epoch: 20 May)

Event Time Altitude Azimuth Distance (km) Brightness Sun altitude
Rises 05:31:34 0° 16° (NNE) 2,925 ? -19.1°
Reaches altitude 10° 05:33:49 10° 20° (NNE) 2,012 ? -18.8°
Maximum altitude 05:38:09 59° 100° (E) 722 ? -18.2°
Enters shadow 05:40:59 20° 175° (S) 1,423 ? -17.8°
